Regional Weather Roundup
Issued by NWS

Home | Current Version | Previous Version | Text Only | Print | Product List | Glossary Off
Versions: 1 2 3 4 5 6 7 8 9 10 11 12 13 14 15 16 17 18 19 20 21 22 23 24 25 26 27 28 29 30 31 32 33 34 35 36 37 38 39 40 41 42 43 44 45 46 47 48 49 50

000
ASUS43 KFSD 250710
RWRSD

WEATHER ROUNDUP FOR SOUTH DAKOTA
NATIONAL WEATHER SERVICE SIOUX FALLS SD
200 AM CDT FRI JUL 25 2014

NOTE: "FAIR" INDICATES FEW OR NO CLOUDS BELOW 12,000 FEET WITH NO
SIGNIFICANT WEATHER AND/OR OBSTRUCTIONS TO VISIBILITY.


SDZ001>005-009-010-012>017-250800-
NORTHWEST AND NORTH CENTRAL SOUTH DAKOTA

CITY           SKY/WX    TMP DP  RH WIND       PRES   REMARKS
BUFFALO          N/A     63  49  60 NW20      29.81R
FAITH            N/A     71  58  63 NW12      29.79R
MOBRIDGE       CLOUDY    71  65  81 SW3       29.63R
$$

SDZ012>016-024>037-041>051-057-063-072>074-250800-
SOUTHWEST AND SOUTH CENTRAL SOUTH DAKOTA

CITY           SKY/WX    TMP DP  RH WIND       PRES   REMARKS
RAPID CTY ARPT CLEAR     72  59  63 N18       29.82R
PIERRE         PTCLDY    72  67  84 SE8       29.67S
CUSTER         CLEAR     69  56  62 N10       29.97R
ELLSWORTH AFB  CLEAR     72  59  63 N23G30    29.83R
PHILIP         CLEAR     73  65  75 E13       29.71R
PINE RIDGE     CLEAR     76  55  48 SW8G21    29.77S
WINNER         FAIR      78  61  55 W17G23    29.73R
$$

SDZ004>011-016>023-039-040-250800-
NORTHEAST SOUTH DAKOTA

CITY           SKY/WX    TMP DP  RH WIND       PRES   REMARKS
ABERDEEN       CLOUDY    67  65  93 S18G30    29.50F
WATERTOWN      TSTM      66  64  93 SW3       29.79R FOG
SISSETON         N/A     64  63  96 SE13      29.74R
$$

SDZ017-020-022-023-036>040-048>070-250800-
SOUTHEAST SOUTH DAKOTA

CITY           SKY/WX    TMP DP  RH WIND       PRES   REMARKS
SIOUX FALLS    MOCLDY    68  61  78 S12       29.71F
HURON          CLOUDY    69  63  81 SE7       29.69F
CHAMBERLAIN    MOCLDY    75  64  70 CALM      29.71F
MITCHELL       CLOUDY    72  64  76 SE10      29.67F
YANKTON        CLOUDY    75  63  64 SW9       29.70F
$$

ABBREVIATIONS USED IN REMARKS
   TC - TEMPERATURE IN CELSIUS
  WCI - WIND CHILL INDEX
   HX - HEAT INDEX
  VSB - VISIBILITY




USA.gov is the U.S. government's official web portal to all federal, state and local government web resources and services.